Location: T�bingen+AIT
(48.5342°N, 9.0700°E)
Time: 22:37:10
(UTC+01:00)

SL-08 ROCKET BODY - Pass Details

Date: 14 September 2017
Orbit: 897 x 963 km, 82.9° (Epoch: 18 November)

Event Time Altitude Azimuth Distance (km) Brightness Sun altitude
Rises 21:19:15 0° 183° (S) 3,501 7.2 -16.9°
Reaches altitude 10° 21:21:41 10° 183° (S) 2,566 6.5 -17.2°
Maximum altitude 21:27:31 82° 97° (E) 919 4.2 -18.1°
Drops below altitude 10° 21:33:27 10° 11° (N) 2,611 7.0 -19.0°
Sets 21:35:56 0° 10° (N) 3,566 7.7 -19.3°
